Grub im Wienerwald
Wetterdaten: aktuell Montag, 24.01.2022 08:12
Datum Zeit Temp. A. Feuchte A. Luftdruck Regen Wind Richtung Richtung Sonnenschein UV Solar Taupunkt Windchill Windben
24.01.2022 08:12 -0,3 C 97 % 1033,9 hPa 0,0 l/m 0,0 km/h NW 316 0 min 0,0 UV-I 7 W/m -0,7 C -0,3 C 0,0 km/h
24.01.2022 08:09 -0,3 C 97 % 1033,9 hPa 0,0 l/m 0,0 km/h NW 316 0 min 0,0 UV-I 5 W/m -0,7 C -0,3 C 0,0 km/h
24.01.2022 08:06 -0,3 C 97 % 1033,9 hPa 0,0 l/m 0,0 km/h NW 316 0 min 0,0 UV-I 5 W/m -0,7 C -0,3 C 0,0 km/h
24.01.2022 08:03 -0,2 C 97 % 1033,9 hPa 0,0 l/m 0,0 km/h NW 316 0 min 0,0 UV-I 5 W/m -0,6 C -0,2 C 0,0 km/h
24.01.2022 08:00 -0,2 C 97 % 1033,9 hPa 0,0 l/m 0,0 km/h NW 316 0 min 0,0 UV-I 5 W/m -0,6 C -0,2 C 0,0 km/h
24.01.2022 07:57 -0,2 C 97 % 1033,9 hPa 0,0 l/m 0,0 km/h NW 316 0 min 0,0 UV-I 5 W/m -0,6 C -0,2 C 0,0 km/h
24.01.2022 07:54 -0,2 C 97 % 1033,8 hPa 0,0 l/m 0,0 km/h NW 316 0 min 0,0 UV-I 0 W/m -0,6 C -0,2 C 0,0 km/h
24.01.2022 07:51 -0,2 C 97 % 1033,9 hPa 0,0 l/m 0,0 km/h NW 316 0 min 0,0 UV-I 0 W/m -0,6 C -0,2 C 0,0 km/h
24.01.2022 07:48 -0,2 C 97 % 1033,9 hPa 0,0 l/m 0,4 km/h NW 316 0 min 0,0 UV-I 0 W/m -0,6 C -0,2 C 3,2 km/h
24.01.2022 07:45 -0,2 C 97 % 1033,8 hPa 0,0 l/m 0,9 km/h NW 316 0 min 0,0 UV-I 0 W/m -0,6 C -0,2 C 3,2 km/h
24.01.2022 07:42 -0,2 C 97 % 1033,7 hPa 0,0 l/m 1,3 km/h NW 316 0 min 0,0 UV-I 0 W/m -0,6 C -0,2 C 4,8 km/h
24.01.2022 07:39 -0,2 C 97 % 1033,7 hPa 0,0 l/m 0,0 km/h NW 316 0 min 0,0 UV-I 0 W/m -0,6 C -0,2 C 0,0 km/h
24.01.2022 07:36 -0,2 C 97 % 1033,6 hPa 0,0 l/m 0,0 km/h NW 316 0 min 0,0 UV-I 0 W/m -0,6 C -0,2 C 0,0 km/h
24.01.2022 07:33 -0,1 C 97 % 1033,6 hPa 0,0 l/m 0,0 km/h NW 316 0 min 0,0 UV-I 0 W/m -0,5 C -0,1 C 0,0 km/h
24.01.2022 07:30 -0,1 C 97 % 1033,6 hPa 0,0 l/m 0,0 km/h NW 316 0 min 0,0 UV-I 0 W/m -0,5 C -0,1 C 1,6 km/h
24.01.2022 07:27 -0,1 C 97 % 1033,5 hPa 0,0 l/m 0,0 km/h NW 316 0 min 0,0 UV-I 0 W/m -0,5 C -0,1 C 0,0 km/h
24.01.2022 07:24 -0,1 C 97 % 1033,6 hPa 0,0 l/m 0,5 km/h NW 316 0 min 0,0 UV-I 0 W/m -0,5 C -0,1 C 3,2 km/h
24.01.2022 07:21 -0,1 C 97 % 1033,5 hPa 0,0 l/m 0,5 km/h NW 316 0 min 0,0 UV-I 0 W/m -0,5 C -0,1 C 3,2 km/h
24.01.2022 07:18 -0,1 C 97 % 1033,4 hPa 0,0 l/m 0,0 km/h NW 316 0 min 0,0 UV-I 0 W/m -0,5 C -0,1 C 1,6 km/h
24.01.2022 07:15 0,0 C 97 % 1033,5 hPa 0,0 l/m 0,0 km/h NW 316 0 min 0,0 UV-I 0 W/m -0,4 C 0,0 C 0,0 km/h
24.01.2022 07:12 0,1 C 97 % 1033,5 hPa 0,0 l/m 0,2 km/h NW 316 0 min 0,0 UV-I 0 W/m -0,3 C 0,1 C 3,2 km/h
24.01.2022 07:09 0,1 C 97 % 1033,5 hPa 0,2 l/m 0,3 km/h NW 316 0 min 0,0 UV-I 0 W/m -0,3 C 0,1 C 3,2 km/h
24.01.2022 07:06 0,1 C 97 % 1033,4 hPa 0,0 l/m 0,6 km/h NW 316 0 min 0,0 UV-I 0 W/m -0,3 C 0,1 C 3,2 km/h
24.01.2022 07:03 0,2 C 97 % 1033,4 hPa 0,0 l/m 1,2 km/h NW 316 0 min 0,0 UV-I 0 W/m -0,2 C 0,2 C 4,8 km/h
24.01.2022 07:00 0,2 C 97 % 1033,4 hPa 0,0 l/m 1,3 km/h NW 316 0 min 0,0 UV-I 0 W/m -0,2 C 0,2 C 4,8 km/h
24.01.2022 06:57 0,2 C 97 % 1033,4 hPa 0,0 l/m 0,9 km/h NW 316 0 min 0,0 UV-I 0 W/m -0,2 C 0,2 C 3,2 km/h
24.01.2022 06:54 0,3 C 97 % 1033,3 hPa 0,0 l/m 0,6 km/h NW 316 0 min 0,0 UV-I 0 W/m -0,1 C 0,3 C 3,2 km/h
24.01.2022 06:51 0,3 C 97 % 1033,2 hPa 0,0 l/m 0,3 km/h NW 316 0 min 0,0 UV-I 0 W/m -0,1 C 0,3 C 3,2 km/h
24.01.2022 06:48 0,3 C 97 % 1033,3 hPa 0,0 l/m 1,8 km/h NW 316 0 min 0,0 UV-I 0 W/m -0,1 C 0,3 C 6,4 km/h
24.01.2022 06:45 0,4 C 97 % 1033,2 hPa 0,0 l/m 2,5 km/h NW 315 0 min 0,0 UV-I 0 W/m -0,0 C 0,4 C 6,4 km/h
24.01.2022 06:42 0,4 C 97 % 1033,1 hPa 0,0 l/m 0,6 km/h NW 315 0 min 0,0 UV-I 0 W/m -0,0 C 0,4 C 4,8 km/h
24.01.2022 06:39 0,5 C 97 % 1033,2 hPa 0,0 l/m 0,0 km/h NW 315 0 min 0,0 UV-I 0 W/m 0,1 C 0,5 C 0,0 km/h
24.01.2022 06:36 0,5 C 97 % 1033,2 hPa 0,0 l/m 0,0 km/h NW 315 0 min 0,0 UV-I 0 W/m 0,1 C 0,5 C 0,0 km/h
24.01.2022 06:33 0,6 C 97 % 1033,2 hPa 0,0 l/m 0,0 km/h NW 315 0 min 0,0 UV-I 0 W/m 0,2 C 0,6 C 0,0 km/h
24.01.2022 06:30 0,6 C 97 % 1033,2 hPa 0,0 l/m 0,0 km/h NW 315 0 min 0,0 UV-I 0 W/m 0,2 C 0,6 C 0,0 km/h
24.01.2022 06:27 0,6 C 97 % 1033,2 hPa 0,0 l/m 0,0 km/h NW 315 0 min 0,0 UV-I 0 W/m 0,2 C 0,6 C 0,0 km/h
24.01.2022 06:24 0,7 C 97 % 1033,2 hPa 0,0 l/m 0,1 km/h NW 315 0 min 0,0 UV-I 0 W/m 0,3 C 0,7 C 1,6 km/h
24.01.2022 06:21 0,7 C 97 % 1033,2 hPa 0,0 l/m 0,8 km/h NW 315 0 min 0,0 UV-I 0 W/m 0,3 C 0,7 C 4,8 km/h
24.01.2022 06:18 0,8 C 97 % 1033,2 hPa 0,2 l/m 0,1 km/h NW 315 0 min 0,0 UV-I 0 W/m 0,4 C 0,8 C 1,6 km/h
24.01.2022 06:15 0,8 C 97 % 1033,2 hPa 0,0 l/m 0,0 km/h NW 315 0 min 0,0 UV-I 0 W/m 0,4 C 0,8 C 0,0 km/h
24.01.2022 06:12 0,8 C 97 % 1033,1 hPa 0,0 l/m 0,0 km/h NW 315 0 min 0,0 UV-I 0 W/m 0,4 C 0,8 C 0,0 km/h
24.01.2022 06:09 0,9 C 97 % 1033,0 hPa 0,0 l/m 0,0 km/h NW 315 0 min 0,0 UV-I 0 W/m 0,5 C 0,9 C 0,0 km/h
24.01.2022 06:06 0,9 C 97 % 1033,1 hPa 0,0 l/m 0,0 km/h NW 315 0 min 0,0 UV-I 0 W/m 0,5 C 0,9 C 0,0 km/h
24.01.2022 06:03 0,9 C 97 % 1033,0 hPa 0,2 l/m 0,2 km/h NW 315 0 min 0,0 UV-I 0 W/m 0,5 C 0,9 C 1,6 km/h
24.01.2022 06:00 0,9 C 97 % 1033,0 hPa 0,0 l/m 1,4 km/h NW 315 0 min 0,0 UV-I 0 W/m 0,5 C 0,9 C 4,8 km/h
24.01.2022 05:57 1,0 C 100 % 1032,9 hPa 0,0 l/m 0,0 km/h NW 315 0 min 0,0 UV-I 0 W/m 1,0 C 1,0 C 0,0 km/h
24.01.2022 05:54 1,1 C 97 % 1032,9 hPa 0,0 l/m 0,0 km/h NW 315 0 min 0,0 UV-I 0 W/m 0,7 C 1,1 C 0,0 km/h
24.01.2022 05:51 1,1 C 97 % 1032,9 hPa 0,2 l/m 0,0 km/h NW 315 0 min 0,0 UV-I 0 W/m 0,7 C 1,1 C 0,0 km/h
24.01.2022 05:48 1,1 C 97 % 1032,9 hPa 0,0 l/m 0,0 km/h NW 315 0 min 0,0 UV-I 0 W/m 0,7 C 1,1 C 0,0 km/h
24.01.2022 05:45 1,1 C 97 % 1032,9 hPa 0,0 l/m 0,0 km/h NW 315 0 min 0,0 UV-I 0 W/m 0,7 C 1,1 C 0,0 km/h
24.01.2022 05:42 1,1 C 97 % 1032,9 hPa 0,0 l/m 0,0 km/h NW 315 0 min 0,0 UV-I 0 W/m 0,7 C 1,1 C 1,6 km/h
24.01.2022 05:39 1,1 C 97 % 1032,9 hPa 0,2 l/m 0,0 km/h NW 315 0 min 0,0 UV-I 0 W/m 0,7 C 1,1 C 0,0 km/h
24.01.2022 05:36 1,1 C 97 % 1032,9 hPa 0,0 l/m 0,0 km/h NW 315 0 min 0,0 UV-I 0 W/m 0,7 C 1,1 C 0,0 km/h
24.01.2022 05:33 1,2 C 97 % 1032,9 hPa 0,0 l/m 0,0 km/h NW 315 0 min 0,0 UV-I 0 W/m 0,8 C 1,2 C 0,0 km/h
24.01.2022 05:30 1,2 C 97 % 1032,9 hPa 0,0 l/m 0,0 km/h NW 315 0 min 0,0 UV-I 0 W/m 0,8 C 1,2 C 0,0 km/h
24.01.2022 05:27 1,2 C 97 % 1032,9 hPa 0,0 l/m 0,0 km/h NW 315 0 min 0,0 UV-I 0 W/m 0,8 C 1,2 C 0,0 km/h
24.01.2022 05:24 1,2 C 97 % 1032,9 hPa 0,0 l/m 0,0 km/h NW 315 0 min 0,0 UV-I 0 W/m 0,8 C 1,2 C 0,0 km/h
24.01.2022 05:21 1,2 C 97 % 1032,9 hPa 0,0 l/m 0,6 km/h NW 315 0 min 0,0 UV-I 0 W/m 0,8 C 1,2 C 3,2 km/h
24.01.2022 05:18 1,2 C 97 % 1032,9 hPa 0,2 l/m 0,6 km/h NW 315 0 min 0,0 UV-I 0 W/m 0,8 C 1,2 C 3,2 km/h
24.01.2022 05:15 1,2 C 97 % 1032,9 hPa 0,0 l/m 0,6 km/h NW 315 0 min 0,0 UV-I 0 W/m 0,8 C 1,2 C 3,2 km/h
24.01.2022 05:12 1,2 C 97 % 1032,9 hPa 0,0 l/m 0,5 km/h NW 315 0 min 0,0 UV-I 0 W/m 0,8 C 1,2 C 3,2 km/h
24.01.2022 05:09 1,2 C 97 % 1032,8 hPa 0,0 l/m 0,0 km/h NW 315 0 min 0,0 UV-I 0 W/m 0,8 C 1,2 C 1,6 km/h
24.01.2022 05:06 1,2 C 97 % 1032,8 hPa 0,0 l/m 0,7 km/h NW 315 0 min 0,0 UV-I 0 W/m 0,8 C 1,2 C 3,2 km/h
24.01.2022 05:03 1,2 C 97 % 1032,8 hPa 0,0 l/m 1,1 km/h NW 315 0 min 0,0 UV-I 0 W/m 0,8 C 1,2 C 3,2 km/h
24.01.2022 05:00 1,2 C 97 % 1032,8 hPa 0,0 l/m 2,6 km/h NW 315 0 min 0,0 UV-I 0 W/m 0,8 C 1,2 C 6,4 km/h
24.01.2022 04:57 1,2 C 97 % 1032,8 hPa 0,0 l/m 4,6 km/h NW 315 0 min 0,0 UV-I 0 W/m 0,8 C 1,2 C 9,7 km/h
24.01.2022 04:54 1,2 C 97 % 1032,8 hPa 0,0 l/m 0,7 km/h NW 315 0 min 0,0 UV-I 0 W/m 0,8 C 1,2 C 3,2 km/h
24.01.2022 04:51 1,2 C 97 % 1032,7 hPa 0,0 l/m 1,6 km/h NW 315 0 min 0,0 UV-I 0 W/m 0,8 C 1,2 C 6,4 km/h
24.01.2022 04:48 1,2 C 97 % 1032,8 hPa 0,0 l/m 2,5 km/h NW 315 0 min 0,0 UV-I 0 W/m 0,8 C 1,2 C 4,8 km/h
24.01.2022 04:45 1,2 C 97 % 1032,8 hPa 0,0 l/m 1,4 km/h NW 315 0 min 0,0 UV-I 0 W/m 0,8 C 1,2 C 4,8 km/h
24.01.2022 04:42 1,2 C 97 % 1032,7 hPa 0,0 l/m 2,8 km/h NW 315 0 min 0,0 UV-I 0 W/m 0,8 C 1,2 C 6,4 km/h
24.01.2022 04:39 1,2 C 97 % 1032,7 hPa 0,2 l/m 3,7 km/h NW 315 0 min 0,0 UV-I 0 W/m 0,8 C 1,2 C 6,4 km/h
24.01.2022 04:36 1,2 C 97 % 1032,6 hPa 0,0 l/m 4,1 km/h NW 315 0 min 0,0 UV-I 0 W/m 0,8 C 1,2 C 6,4 km/h
24.01.2022 04:33 1,2 C 97 % 1032,6 hPa 0,0 l/m 3,8 km/h NW 315 0 min 0,0 UV-I 0 W/m 0,8 C 1,2 C 6,4 km/h
24.01.2022 04:30 1,2 C 97 % 1032,5 hPa 0,0 l/m 2,8 km/h NW 315 0 min 0,0 UV-I 0 W/m 0,8 C 1,2 C 6,4 km/h
24.01.2022 04:27 1,2 C 97 % 1032,5 hPa 0,0 l/m 3,9 km/h NW 315 0 min 0,0 UV-I 0 W/m 0,8 C 1,2 C 8,0 km/h
24.01.2022 04:24 1,2 C 97 % 1032,5 hPa 0,0 l/m 4,9 km/h NW 315 0 min 0,0 UV-I 0 W/m 0,8 C 1,2 C 11,3 km/h
24.01.2022 04:21 1,2 C 97 % 1032,6 hPa 0,0 l/m 3,6 km/h NW 319 0 min 0,0 UV-I 0 W/m 0,8 C 1,2 C 9,7 km/h
24.01.2022 04:18 1,2 C 97 % 1032,6 hPa 0,0 l/m 3,9 km/h NW 319 0 min 0,0 UV-I 0 W/m 0,8 C 1,2 C 6,4 km/h
24.01.2022 04:15 1,2 C 97 % 1032,5 hPa 0,0 l/m 4,7 km/h NW 319 0 min 0,0 UV-I 0 W/m 0,8 C 1,2 C 8,0 km/h
24.01.2022 04:12 1,2 C 97 % 1032,6 hPa 0,0 l/m 4,4 km/h NW 319 0 min 0,0 UV-I 0 W/m 0,8 C 1,2 C 8,0 km/h
24.01.2022 04:09 1,2 C 97 % 1032,5 hPa 0,0 l/m 4,0 km/h NW 319 0 min 0,0 UV-I 0 W/m 0,8 C 1,2 C 8,0 km/h
24.01.2022 04:06 1,2 C 97 % 1032,5 hPa 0,0 l/m 4,9 km/h NW 319 0 min 0,0 UV-I 0 W/m 0,8 C 1,2 C 8,0 km/h
24.01.2022 04:03 1,2 C 97 % 1032,5 hPa 0,0 l/m 5,2 km/h NW 319 0 min 0,0 UV-I 0 W/m 0,8 C 1,2 C 9,7 km/h
24.01.2022 04:00 1,2 C 97 % 1032,5 hPa 0,2 l/m 3,5 km/h NW 319 0 min 0,0 UV-I 0 W/m 0,8 C 1,2 C 4,8 km/h
24.01.2022 03:57 1,2 C 97 % 1032,5 hPa 0,0 l/m 4,4 km/h NW 319 0 min 0,0 UV-I 0 W/m 0,8 C 1,2 C 6,4 km/h
24.01.2022 03:54 1,2 C 97 % 1032,5 hPa 0,0 l/m 5,7 km/h NW 319 0 min 0,0 UV-I 0 W/m 0,8 C 1,2 C 11,3 km/h
24.01.2022 03:51 1,3 C 97 % 1032,5 hPa 0,0 l/m 4,9 km/h NW 319 0 min 0,0 UV-I 0 W/m 0,9 C 1,3 C 11,3 km/h
24.01.2022 03:48 1,2 C 97 % 1032,5 hPa 0,0 l/m 3,9 km/h NW 316 0 min 0,0 UV-I 0 W/m 0,8 C 1,2 C 8,0 km/h
24.01.2022 03:45 1,3 C 97 % 1032,5 hPa 0,0 l/m 3,8 km/h NW 316 0 min 0,0 UV-I 0 W/m 0,9 C 1,3 C 6,4 km/h
24.01.2022 03:42 1,3 C 97 % 1032,5 hPa 0,0 l/m 5,6 km/h NW 316 0 min 0,0 UV-I 0 W/m 0,9 C 1,3 C 8,0 km/h
_ Min-Zeit 08:06 09:00 09:00 - 05:09 - - - - - 08:06 19:03 05:24
Minimum _ -0,3 C 96 % 1030,5 hPa - 0,0 km/h - - - - - -0,7 C -5,8 C 0,0 km/h
_ Max-Zeit 13:36 05:57 07:48 09:06 19:03 - - 09:00 12:39 13:15 13:36 12:54 12:42
Maximum _ 1,9 C 100 % 1033,9 hPa 0,2 l/m 16,6 km/h
NW
- - 0 min 0,9 UV-I 137 W/m 1,3 C 1,8 C 27,4 km/h
N-NW
Durchschnitt _ 1,3 C 96 % 1032,0 hPa #20,8 l/m 5,8 km/h NW - #0 min. 0,0 UV-I 5 W/m 0,8 C 0,3 C 10,6 km/h
Schulla EDV